Location: Hilton Head Island
(32.2163°N, 80.7526°W)
Time: 11:29:42
(UTC-04:00)

S-56A Canister/Altair - Pass Details

Date: 16 February 2026
Orbit: 633 x 2484 km, 38.9° (Epoch: 10 March)

Event Time Altitude Azimuth Distance (km) Brightness Sun altitude
Exits shadow 04:52:48 45° 297° (WNW) 2,229 9.4 -28.5°
Maximum altitude 04:57:01 87° 23° (NNE) 1,922 9.3 -27.6°
Drops below altitude 10° 05:11:02 10° 114° (ESE) 4,992 12.5 -24.6°
Sets 05:15:14 0° 115° (ESE) 6,101 13.2 -23.7°
